Tracking 30986 objects as of 9-Jul-2025
HD Live streaming from Space Station
objects crossing your sky now

CZ-6A DEB

Track CZ-6A DEB now!
10-day predictions


NORAD ID: 56589
Int'l Code: 2022-151ADM
Perigee: 775.8 km
Apogee: 1,074.1 km
Inclination: 98.9 °
Period: 103.4 minutes
Semi major axis: 7295 km
RCS: Unknown
Launch date: November 11, 2022
Source: People's Republic of China (PRC)
Launch site: Taiyaun Space Center, China (TSC)

Note: This is SATELLITE DEBRIS
Your satellite tracking list
Your tracking list is empty




NASA's NSSDC Master Catalog

Two Line Element Set (TLE):
1 56589U 22151ADM 25190.36864684  .00001326  00000-0  88651-3 0  9999
2 56589  98.8819 162.1668 0204442 269.9186  87.8550 13.93082134116831
Source of the keplerian elements: AFSPC